Regional Weather Roundup
Issued by NWS Sioux Falls, SD

Home | Current Version | Previous Version | Graphics & Text | Print | Product List | Glossary On
Versions: 1 2 3 4 5 6 7 8 9 10 11 12 13 14 15 16 17 18 19 20 21 22 23 24 25 26 27 28 29 30 31 32 33 34 35 36 37 38 39 40 41 42 43 44 45 46 47 48 49 50
000
ASUS43 KFSD 291502
RWRFSD

WEATHER ROUNDUP FOR SE SOUTH DAKOTA/SW MINNESOTA/NW IOWA
NATIONAL WEATHER SERVICE SIOUX FALLS SD
1000 AM CDT TUE JUL 29 2014

NOTE: "FAIR" INDICATES FEW OR NO CLOUDS BELOW 12,000 FEET WITH NO
SIGNIFICANT WEATHER AND OR OBSTRUCTIONS TO VISIBILITY.


SDZ038>040-050-052>070-291600-
SOUTHEAST SOUTH DAKOTA

CITY           SKY/WX    TMP DP  RH WIND       PRES   REMARKS
CHAMBERLAIN    SUNNY     68  56  64 CALM      30.24S
HURON          MOSUNNY   68  55  63 W3        30.23S
MADISON        FAIR      66  55  68 NW3       30.24S
MITCHELL       PTSUNNY   67  56  67 CALM      30.24S
SIOUX FALLS    MOSUNNY   68  55  63 NW5       30.23S
WINNER         FAIR      70  56  61 SW5       30.24S
YANKTON          N/A    N/A N/A N/A W3        30.23S
$$

MNZ071-072-080-081-089-090-097-098-291600-
SOUTHWEST MINNESOTA

CITY           SKY/WX    TMP DP  RH WIND       PRES   REMARKS
FAIRMONT       SUNNY     70  55  60 NW8       30.19S
JACKSON        SUNNY     68  55  64 NW7       30.21S
LUVERNE        SUNNY     68  54  60 NW6       30.23S
MARSHALL       SUNNY     66  54  63 N6        30.20S
MONTEVIDEO     SUNNY     70  64  83 NW5       30.20F
PIPESTONE      SUNNY     66  54  63 NW5       30.22F
REDWOOD FALLS  SUNNY     69  57  65 NW7       30.18F
TRACY          SUNNY     67  57  69 NW7       30.21F
WINDOM         SUNNY     66  55  68 NW9       30.20F
WORTHINGTON    SUNNY     66  55  68 N8        30.23S
$$

IAZ001>003-012>014-020>022-031-032-NEZ013-014-SDZ071-291600-
NORTHWEST IOWA

CITY           SKY/WX    TMP DP  RH WIND       PRES   REMARKS
CHEROKEE       SUNNY     66  57  72 N6        30.22S
DENISON        SUNNY     68  57  68 CALM      30.20S
ESTHERVILLE    SUNNY     67  56  67 N7        30.20R
LE MARS        SUNNY     66  57  72 NW3       30.23S
ORANGE CITY    SUNNY     66  55  68 NW6       30.23S
SHELDON        SUNNY     66  57  72 N7        30.21S
SIOUX CITY     MOSUNNY   70  56  61 VRB3      30.23R
SPENCER        SUNNY     69  56  62 N8        30.21S
STORM LAKE     SUNNY     68  59  73 VRB3      30.22S
$$

ABBREVIATIONS USED IN REMARKS
   TC - TEMPERATURE IN CELSIUS
  WCI - WIND CHILL INDEX
   HX - HEAT INDEX
  VSB - VISIBILITY




USA.gov is the U.S. government's official web portal to all federal, state and local government web resources and services.